Other Public Products
Issued by NWS Charleston, SC

Current Version | Previous Version | Graphics & Text | Print | Product List | Glossary On
Versions: 1 2 3 4 5 6 7 8 9 10 11 12 13 14 15 16 17 18 19 20 21 22 23 24 25 26 27 28 29 30 31 32 33 34 35 36 37 38 39 40 41 42 43 44 45 46 47 48 49 50
000
FPUS82 KCHS 121411
OPUCHS

TEST...KCHS/KSAV Gateway Observations...TEST
National Weather Service Charleston SC
900 AM EST TUE DEC 12 2017

NOTE: "fair" indicates few or no clouds below 12,000 feet with no
significant weather and/or obstructions to visibility.

SCZ050-WAZ558-NCZ071-TXZ119-213-PAZ071-DCZ001-FLZ074-172-MI076-
NYZ176-178-MAZ016-IL014-TNZ027-NJZ106-GAZ044-MD014-121500-

...Gateway Observations for Charleston International...

CITY           SKY/WX    TMP DP  RH WIND       PRES   REMARKS
Chas Airport   MOSUNNY   50  41  71 SW13      29.84F
Seattle        CLOUDY    33  25  72 N6        30.43S WCI  28
Charlotte      PTSUNNY   43  36  76 W5        29.73F
Dallas DFW     CLEAR     44  29  55 N15       30.38R
Dallas Love    PTCLDY    45  30  55 N16G22    30.40R
Philladelphia  CLOUDY    46  33  60 S9        29.58F
Wash National  CLOUDY    43  32  65 W5        29.62R
Baltimore      CLOUDY    41  33  73 CALM      29.60R
Miami          MOSUNNY   60  44  55 NW6       30.13S
Detroit        PTCLDY    21   8  57 NW16G24   29.84R WCI   7
Newark         CLOUDY    47  38  71 S12       29.61F
Laguardia      CLOUDY    50  39  66 S12       29.61F
J F K          CLOUDY    49  41  74 S15       29.64F
Boston Logan   CLOUDY    40  34  79 SE14      29.78F WCI  32
Ft. Lauderdale MOSUNNY   57  43  59 W6        30.12R
Chicago O`Hare PTCLDY    17   7  64 NW20      30.07R WCI   1
Chicago Midway PTCLDY    19   8  62 NW17G25   30.07S WCI   4
Houston Bush   PTCLDY    51  31  46 N8        30.30R
Houston Hobby  PTCLDY    52  32  46 N12       30.30R
Nashville      CLOUDY    41  33  73 NW16G22   30.04R
Atlanta        MOSUNNY   43  36  76 NW12      29.89R

$$

GAZ044-118-TXZ119-213-NCZ071-DCZ001-MDZ014-506-PAZ021-071-NJZ106-
NYZ176-178-MAZ106-OHZ011-021-055-MIZ076-KYZ091-ILZ014-INZ047-
MNZ060-ONZ431-121500-

...Gateway Observations for Savannah International...

CITY           SKY/WX    TMP DP  RH WIND       PRES   REMARKS
Savannah Arpt  MOSUNNY   49  43  80 SW10      29.89
Atlanta        MOSUNNY   43  36  76 NW12      29.89R
Charlotte      PTSUNNY   43  36  76 W5        29.73F
Dallas DFW     CLEAR     44  29  55 N15       30.38R
Houston Bush   PTCLDY    51  31  46 N8        30.30R
Wash National  CLOUDY    43  32  65 W5        29.62R
Wash Dulles    CLOUDY    38  32  79 S3        29.60S
Baltimore      CLOUDY    41  33  73 CALM      29.60R
Philadelphia   CLOUDY    46  33  60 S9        29.58F
Newark         CLOUDY    47  38  71 S12       29.61F
Laguardia      CLOUDY    50  39  66 S12       29.61F
J F K          CLOUDY    49  41  74 S15       29.64F
Boston         CLOUDY    40  34  79 SE14      29.78F WCI  32
Pittsburg      LGT SNOW  33  28  81 NW22G31   29.64R WCI  21
Akron          LGT SNOW  27  20  75 NW16G28   29.71R WCI  15
Cleveland      LGT SNOW  27  20  75 NW23G32   29.78R BLWGSNOWWCI  12
Cincinnati     LGT SNOW  30  26  85 NW20      29.91R FOG     WCI  17
Columbus       CLOUDY    28  23  81 NW17G23   29.82R WCI  16
Detroit        PTCLDY    21   8  57 NW16G24   29.84R WCI   7
Chicago O`Hare PTCLDY    17   7  64 NW20      30.07R WCI   1
Minneapolis    CLOUDY     7   3  84 W7        30.23S WCI  -5
Indianapolis   PTCLDY    24  12  60 NW16G25   30.02R WCI  11
Toronto Canada FLURRIES  27  23  86 W16G24    29.52S WCI  14

$$




USA.gov is the U.S. government's official web portal to all federal, state and local government web resources and services.